| time (UTC) | temp F | wind direction | speed MPH | gust MPH | rain 1hr in | rain 24hr in | rain mn in | humidity % | barometer mb |
| 20260502163003 | 87 | 273 | 2.0 | 5.0 | 0.00 | 0.00 | 0.00 | 22 | 1009.6 |
| 20260502162503 | 87 | 238 | 3.0 | 7.0 | 0.00 | 0.00 | 0.00 | 22 | 1009.6 |
| 20260502162003 | 86 | 242 | 4.0 | 7.0 | 0.00 | 0.00 | 0.00 | 23 | 1009.6 |
| 20260502161503 | 86 | 270 | 5.0 | 8.0 | 0.00 | 0.00 | 0.00 | 24 | 1009.6 |
| 20260502161003 | 86 | 266 | 6.0 | 8.0 | 0.00 | 0.00 | 0.00 | 24 | 1009.6 |
| 20260502151503 | 80 | 255 | 6.0 | 12.0 | 0.00 | 0.00 | 0.00 | 25 | 1009.5 |
| 20260502151003 | 79 | 247 | 6.0 | 12.0 | 0.00 | 0.00 | 0.00 | 25 | 1009.6 |
| 20260502150503 | 79 | 250 | 6.0 | 12.0 | 0.00 | 0.00 | 0.00 | 25 | 1009.6 |
| 20260502130503 | 71 | 292 | 2.0 | 5.0 | 0.00 | 0.00 | 0.00 | 30 | 1008.5 |
| 20260502123503 | 71 | 282 | 2.0 | 3.0 | 0.00 | 0.00 | 0.00 | 30 | 1008.3 |
| 20260502123004 | 71 | 284 | 3.0 | 5.0 | 0.00 | 0.00 | 0.00 | 32 | 1008.3 |
| 20260502122504 | 70 | 274 | 3.0 | 6.0 | 0.00 | 0.00 | 0.00 | 33 | 1008.3 |
| 20260502122003 | 70 | 274 | 3.0 | 3.0 | 0.00 | 0.00 | 0.00 | 34 | 1008.1 |
| 20260502121503 | 70 | 284 | 2.0 | 3.0 | 0.00 | 0.00 | 0.00 | 35 | 1008.1 |
| 20260502121004 | 70 | 270 | 2.0 | 5.0 | 0.00 | 0.00 | 0.00 | 36 | 1008.1 |
| 20260502120503 | 70 | 267 | 2.0 | 5.0 | 0.00 | 0.00 | 0.00 | 37 | 1008.1 |
| 20260502115503 | 71 | 314 | 1.0 | 3.0 | 0.00 | 0.00 | 0.00 | 37 | 1008.1 |
| 20260502115003 | 72 | 274 | 2.0 | 7.0 | 0.00 | 0.00 | 0.00 | 37 | 1008.0 |
| 20260502114503 | 72 | 252 | 5.0 | 9.0 | 0.00 | 0.00 | 0.00 | 37 | 1008.0 |
| 20260502114004 | 72 | 284 | 3.0 | 6.0 | 0.00 | 0.00 | 0.00 | 36 | 1008.0 |
| 20260502113503 | 73 | 267 | 3.0 | 6.0 | 0.00 | 0.00 | 0.00 | 36 | 1008.0 |
| 20260502113004 | 73 | 272 | 3.0 | 8.0 | 0.00 | 0.00 | 0.00 | 34 | 1008.0 |
| 20260502112504 | 73 | 256 | 6.0 | 8.0 | 0.00 | 0.00 | 0.00 | 34 | 1008.0 |
| 20260502112003 | 73 | 259 | 3.0 | 7.0 | 0.00 | 0.00 | 0.00 | 34 | 1008.0 |
| 20260502111504 | 73 | 254 | 3.0 | 5.0 | 0.00 | 0.00 | 0.00 | 35 | 1008.0 |
| 20260502110503 | 73 | 243 | 5.0 | 9.0 | 0.00 | 0.00 | 0.00 | 33 | 1008.0 |
| 20260502110003 | 73 | 249 | 4.0 | 6.0 | 0.00 | 0.00 | 0.00 | 32 | 1008.0 |
| 20260502105504 | 74 | 277 | 2.0 | 3.0 | 0.00 | 0.00 | 0.00 | 29 | 1008.0 |
| 20260502105003 | 75 | 249 | 2.0 | 3.0 | 0.00 | 0.00 | 0.00 | 30 | 1008.0 |
| 20260502104504 | 74 | 279 | 2.0 | 3.0 | 0.00 | 0.00 | 0.00 | 29 | 1007.9 |
| 20260502104003 | 75 | 282 | 0.0 | 5.0 | 0.00 | 0.00 | 0.00 | 30 | 1007.8 |
| 20260502103503 | 76 | 256 | 3.0 | 7.0 | 0.00 | 0.00 | 0.00 | 30 | 1007.6 |
| 20260502103003 | 76 | 302 | 2.0 | 3.0 | 0.00 | 0.00 | 0.00 | 28 | 1007.6 |
| 20260502102503 | 76 | 302 | 1.0 | 2.0 | 0.00 | 0.00 | 0.00 | 28 | 1007.7 |
| 20260502102004 | 76 | 302 | 0.0 | 1.0 | 0.00 | 0.00 | 0.00 | 27 | 1007.8 |
| 20260502101504 | 76 | 302 | 2.0 | 3.0 | 0.00 | 0.00 | 0.00 | 26 | 1007.8 |
| 20260502101003 | 77 | 302 | 1.0 | 3.0 | 0.00 | 0.00 | 0.00 | 26 | 1007.7 |
| 20260502100503 | 77 | 280 | 3.0 | 9.0 | 0.00 | 0.00 | 0.00 | 26 | 1007.6 |
| 20260502091503 | 78 | 294 | 6.0 | 13.0 | 0.00 | 0.00 | 0.00 | 31 | 1007.7 |
| 20260502090503 | 79 | 274 | 9.0 | 14.0 | 0.00 | 0.00 | 0.00 | 29 | 1007.5 |
| 20260502071504 | 81 | 283 | 5.0 | 12.0 | 0.00 | 0.00 | 0.00 | 27 | 1007.7 |
| 20260502071003 | 81 | 288 | 5.0 | 12.0 | 0.00 | 0.00 | 0.00 | 27 | 1007.8 |
| 20260502070504 | 81 | 276 | 7.0 | 12.0 | 0.00 | 0.00 | 0.00 | 28 | 1007.7 |
| 20260502070003 | 81 | 299 | 7.0 | 15.0 | 0.00 | 0.00 | 0.00 | 29 | 1007.6 |
| 20260502065503 | 81 | 287 | 7.0 | 16.0 | 0.00 | 0.00 | 0.00 | 30 | 1007.6 |
| 20260502065003 | 81 | 296 | 6.0 | 14.0 | 0.00 | 0.00 | 0.00 | 29 | 1007.6 |
| 20260502064503 | 81 | 299 | 7.0 | 15.0 | 0.00 | 0.00 | 0.00 | 30 | 1007.6 |
| 20260502064003 | 81 | 275 | 7.0 | 14.0 | 0.00 | 0.00 | 0.00 | 31 | 1007.6 |
| 20260502063503 | 81 | 278 | 7.0 | 14.0 | 0.00 | 0.00 | 0.00 | 30 | 1007.7 |
| 20260502063004 | 81 | 284 | 8.0 | 13.0 | 0.00 | 0.00 | 0.00 | 31 | 1007.6 |
| 20260502062504 | 81 | 264 | 7.0 | 13.0 | 0.00 | 0.00 | 0.00 | 29 | 1007.6 |
| 20260502062003 | 81 | 286 | 7.0 | 15.0 | 0.00 | 0.00 | 0.00 | 31 | 1007.5 |
| 20260502061503 | 80 | 294 | 9.0 | 17.0 | 0.00 | 0.00 | 0.00 | 33 | 1007.5 |
| 20260502061003 | 80 | 282 | 10.0 | 21.0 | 0.00 | 0.00 | 0.00 | 34 | 1007.4 |
| 20260502060003 | 80 | 298 | 10.0 | 20.0 | 0.00 | 0.00 | 0.00 | 35 | 1007.1 |
| 20260502055504 | 81 | 308 | 9.0 | 18.0 | 0.00 | 0.00 | 0.00 | 34 | 1007.3 |
| 20260502055004 | 80 | 300 | 13.0 | 22.0 | 0.00 | 0.00 | 0.00 | 34 | 1007.3 |
| 20260502054503 | 80 | 284 | 9.0 | 17.0 | 0.00 | 0.00 | 0.00 | 36 | 1007.4 |
| 20260502053504 | 81 | 299 | 12.0 | 20.0 | 0.00 | 0.00 | 0.00 | 36 | 1007.5 |
| 20260502053004 | 81 | 290 | 11.0 | 20.0 | 0.00 | 0.00 | 0.00 | 35 | 1007.4 |
| 20260502052503 | 81 | 282 | 10.0 | 20.0 | 0.00 | 0.00 | 0.00 | 36 | 1007.2 |
| 20260502052004 | 81 | 285 | 10.0 | 20.0 | 0.00 | 0.00 | 0.00 | 36 | 1007.0 |
| 20260502051503 | 81 | 296 | 11.0 | 20.0 | 0.00 | 0.00 | 0.00 | 35 | 1007.0 |
| 20260502051003 | 81 | 294 | 9.0 | 21.0 | 0.00 | 0.00 | 0.00 | 35 | 1007.0 |
| 20260502050503 | 82 | 288 | 10.0 | 20.0 | 0.00 | 0.00 | 0.00 | 35 | 1007.0 |
| 20260502050003 | 82 | 296 | 12.0 | 23.0 | 0.00 | 0.00 | 0.00 | 34 | 1007.0 |
| 20260502045503 | 82 | 308 | 13.0 | 21.0 | 0.00 | 0.00 | 0.00 | 33 | 1006.9 |
| 20260502044504 | 83 | 313 | 12.0 | 21.0 | 0.00 | 0.00 | 0.00 | 31 | 1006.9 |
| 20260502044004 | 84 | 290 | 9.0 | 21.0 | 0.00 | 0.00 | 0.00 | 29 | 1006.8 |
| 20260502043503 | 84 | 299 | 11.0 | 22.0 | 0.00 | 0.00 | 0.00 | 27 | 1006.7 |
| 20260502043004 | 84 | 299 | 10.0 | 20.0 | 0.00 | 0.00 | 0.00 | 27 | 1006.5 |
| 20260502042504 | 84 | 310 | 9.0 | 20.0 | 0.00 | 0.00 | 0.00 | 26 | 1006.4 |
| 20260502042003 | 85 | 307 | 9.0 | 20.0 | 0.00 | 0.00 | 0.00 | 25 | 1006.4 |
| 20260502041503 | 85 | 293 | 10.0 | 20.0 | 0.00 | 0.00 | 0.00 | 24 | 1006.4 |
| 20260502041003 | 85 | 304 | 10.0 | 20.0 | 0.00 | 0.00 | 0.00 | 25 | 1006.4 |
| 20260502040003 | 85 | 305 | 9.0 | 20.0 | 0.00 | 0.00 | 0.00 | 25 | 1006.2 |
| 20260502035503 | 85 | 310 | 8.0 | 17.0 | 0.00 | 0.00 | 0.00 | 26 | 1006.0 |
| 20260502035003 | 85 | 287 | 9.0 | 20.0 | 0.00 | 0.00 | 0.00 | 26 | 1006.0 |
| 20260502034503 | 85 | 306 | 11.0 | 22.0 | 0.00 | 0.00 | 0.00 | 25 | 1005.9 |
| 20260502034003 | 85 | 295 | 12.0 | 21.0 | 0.00 | 0.00 | 0.00 | 25 | 1005.9 |
| 20260502033003 | 86 | 292 | 9.0 | 18.0 | 0.00 | 0.00 | 0.00 | 25 | 1005.8 |
| 20260502032503 | 86 | 293 | 6.0 | 16.0 | 0.00 | 0.00 | 0.00 | 24 | 1005.7 |
| 20260502032004 | 86 | 301 | 9.0 | 17.0 | 0.00 | 0.00 | 0.00 | 23 | 1005.6 |
| 20260502031004 | 86 | 320 | 6.0 | 15.0 | 0.00 | 0.00 | 0.00 | 22 | 1005.5 |
| 20260502030003 | 87 | 306 | 6.0 | 12.0 | 0.00 | 0.00 | 0.00 | 20 | 1005.5 |
| 20260502025504 | 87 | 321 | 5.0 | 16.0 | 0.00 | 0.00 | 0.00 | 19 | 1005.6 |
| 20260502025003 | 88 | 301 | 8.0 | 15.0 | 0.00 | 0.00 | 0.00 | 19 | 1005.5 |
| 20260502024503 | 88 | 297 | 9.0 | 16.0 | 0.00 | 0.00 | 0.00 | 18 | 1005.4 |
| 20260502024004 | 88 | 298 | 9.0 | 16.0 | 0.00 | 0.00 | 0.00 | 18 | 1005.4 |
| 20260502023503 | 88 | 295 | 10.0 | 17.0 | 0.00 | 0.00 | 0.00 | 19 | 1005.4 |
| 20260502023003 | 89 | 286 | 11.0 | 20.0 | 0.00 | 0.00 | 0.00 | 19 | 1005.4 |
| 20260502022003 | 89 | 300 | 8.0 | 17.0 | 0.00 | 0.00 | 0.00 | 20 | 1005.2 |
| 20260502021503 | 89 | 298 | 9.0 | 20.0 | 0.00 | 0.00 | 0.00 | 20 | 1005.0 |
| 20260502021003 | 90 | 289 | 8.0 | 18.0 | 0.00 | 0.00 | 0.00 | 20 | 1005.1 |
| 20260502020003 | 90 | 294 | 11.0 | 17.0 | 0.00 | 0.00 | 0.00 | 20 | 1004.9 |
| 20260502015503 | 91 | 294 | 9.0 | 18.0 | 0.00 | 0.00 | 0.00 | 19 | 1004.9 |
| 20260502015003 | 91 | 290 | 10.0 | 17.0 | 0.00 | 0.00 | 0.00 | 20 | 1004.9 |
| 20260502014003 | 92 | 290 | 9.0 | 15.0 | 0.00 | 0.00 | 0.00 | 18 | 1004.9 |
| 20260502013004 | 93 | 290 | 10.0 | 16.0 | 0.00 | 0.00 | 0.00 | 19 | 1004.9 |
| 20260502012503 | 93 | 305 | 11.0 | 18.0 | 0.00 | 0.00 | 0.00 | 18 | 1004.8 |
| 20260502012004 | 94 | 288 | 10.0 | 17.0 | 0.00 | 0.00 | 0.00 | 18 | 1004.8 |
| 20260502011503 | 94 | 281 | 10.0 | 20.0 | 0.00 | 0.00 | 0.00 | 18 | 1004.8 |
| 20260502011003 | 94 | 280 | 9.0 | 15.0 | 0.00 | 0.00 | 0.00 | 17 | 1004.8 |
| 20260502010503 | 94 | 285 | 13.0 | 20.0 | 0.00 | 0.00 | 0.00 | 17 | 1004.8 |
| 20260502010003 | 94 | 290 | 12.0 | 20.0 | 0.00 | 0.00 | 0.00 | 17 | 1004.8 |
| 20260502005003 | 95 | 282 | 11.0 | 16.0 | 0.00 | 0.00 | 0.00 | 17 | 1004.6 |
| 20260502004503 | 95 | 287 | 11.0 | 18.0 | 0.00 | 0.00 | 0.00 | 17 | 1004.6 |
| 20260502003503 | 96 | 288 | 9.0 | 20.0 | 0.00 | 0.00 | 0.00 | 17 | 1004.5 |
| 20260502003003 | 96 | 261 | 7.0 | 17.0 | 0.00 | 0.00 | 0.00 | 17 | 1004.4 |
| 20260502002503 | 96 | 289 | 9.0 | 17.0 | 0.00 | 0.00 | 0.00 | 16 | 1004.5 |
| 20260502001504 | 97 | 275 | 7.0 | 17.0 | 0.00 | 0.00 | 0.00 | 16 | 1004.4 |
| 20260502001003 | 97 | 281 | 7.0 | 16.0 | 0.00 | 0.00 | 0.00 | 16 | 1004.4 |
| 20260502000503 | 98 | 297 | 8.0 | 15.0 | 0.00 | 0.00 | 0.00 | 16 | 1004.4 |
| 20260501235503 | 98 | 271 | 4.0 | 12.0 | 0.00 | 0.00 | 0.00 | 14 | 1004.5 |
| 20260501235003 | 98 | 279 | 7.0 | 12.0 | 0.00 | 0.00 | 0.00 | 15 | 1004.5 |
| 20260501234504 | 98 | 291 | 7.0 | 13.0 | 0.00 | 0.00 | 0.00 | 14 | 1004.5 |
| 20260501234003 | 98 | 283 | 3.0 | 8.0 | 0.00 | 0.00 | 0.00 | 15 | 1004.5 |
| 20260501233504 | 98 | 160 | 3.0 | 7.0 | 0.00 | 0.00 | 0.00 | 13 | 1004.7 |
| 20260501233003 | 98 | 243 | 9.0 | 14.0 | 0.00 | 0.00 | 0.00 | 13 | 1004.7 |
| 20260501232503 | 99 | 127 | 5.0 | 9.0 | 0.00 | 0.00 | 0.00 | 12 | 1004.5 |
| 20260501230003 | 97 | 201 | 1.0 | 3.0 | 0.00 | 0.00 | 0.00 | 13 | 1004.9 |
| 20260501225503 | 97 | 59 | 2.0 | 5.0 | 0.00 | 0.00 | 0.00 | 13 | 1004.9 |
| 20260501225003 | 97 | 157 | 1.0 | 3.0 | 0.00 | 0.00 | 0.00 | 14 | 1004.9 |
| 20260501224503 | 99 | 105 | 3.0 | 8.0 | 0.00 | 0.00 | 0.00 | 14 | 1005.0 |
| 20260501224003 | 99 | 123 | 5.0 | 8.0 | 0.00 | 0.00 | 0.00 | 13 | 1005.0 |
| 20260501223504 | 98 | 65 | 5.0 | 7.0 | 0.00 | 0.00 | 0.00 | 13 | 1005.1 |
| 20260501223004 | 99 | 106 | 3.0 | 8.0 | 0.00 | 0.00 | 0.00 | 13 | 1005.3 |
| 20260501222503 | 98 | 77 | 6.0 | 9.0 | 0.00 | 0.00 | 0.00 | 13 | 1005.4 |
| 20260501222003 | 98 | 111 | 1.0 | 7.0 | 0.00 | 0.00 | 0.00 | 14 | 1005.4 |
| 20260501221503 | 99 | 81 | 4.0 | 8.0 | 0.00 | 0.00 | 0.00 | 13 | 1005.5 |
| 20260501221004 | 99 | 71 | 5.0 | 8.0 | 0.00 | 0.00 | 0.00 | 14 | 1005.7 |
| 20260501220503 | 99 | 107 | 6.0 | 12.0 | 0.00 | 0.00 | 0.00 | 13 | 1005.8 |
| 20260501215504 | 99 | 54 | 3.0 | 9.0 | 0.00 | 0.00 | 0.00 | 14 | 1005.9 |
| 20260501215003 | 98 | 87 | 3.0 | 8.0 | 0.00 | 0.00 | 0.00 | 14 | 1006.0 |
| 20260501214503 | 98 | 34 | 5.0 | 8.0 | 0.00 | 0.00 | 0.00 | 15 | 1006.0 |
| 20260501214003 | 96 | 311 | 1.0 | 5.0 | 0.00 | 0.00 | 0.00 | 14 | 1006.1 |
| 20260501213503 | 96 | 75 | 2.0 | 7.0 | 0.00 | 0.00 | 0.00 | 15 | 1006.3 |
| 20260501213004 | 97 | 121 | 5.0 | 8.0 | 0.00 | 0.00 | 0.00 | 13 | 1006.4 |
| 20260501212503 | 98 | 115 | 5.0 | 9.0 | 0.00 | 0.00 | 0.00 | 13 | 1006.4 |
| 20260501212003 | 97 | 33 | 6.0 | 8.0 | 0.00 | 0.00 | 0.00 | 14 | 1006.4 |
| 20260501211504 | 96 | 323 | 1.0 | 3.0 | 0.00 | 0.00 | 0.00 | 14 | 1006.5 |
| 20260501211004 | 97 | 146 | 3.0 | 8.0 | 0.00 | 0.00 | 0.00 | 15 | 1006.5 |
| 20260501210503 | 97 | 104 | 3.0 | 8.0 | 0.00 | 0.00 | 0.00 | 15 | 1006.6 |
| 20260501210003 | 96 | 86 | 5.0 | 10.0 | 0.00 | 0.00 | 0.00 | 15 | 1006.7 |
| 20260501205504 | 94 | 79 | 2.0 | 10.0 | 0.00 | 0.00 | 0.00 | 17 | 1006.8 |
| 20260501205004 | 94 | 233 | 4.0 | 9.0 | 0.00 | 0.00 | 0.00 | 16 | 1007.0 |
| 20260501204504 | 94 | 143 | 3.0 | 10.0 | 0.00 | 0.00 | 0.00 | 17 | 1006.9 |
| 20260501204004 | 96 | 129 | 6.0 | 10.0 | 0.00 | 0.00 | 0.00 | 17 | 1006.9 |
| 20260501203503 | 95 | 67 | 2.0 | 8.0 | 0.00 | 0.00 | 0.00 | 19 | 1007.0 |
| 20260501203003 | 94 | 115 | 5.0 | 8.0 | 0.00 | 0.00 | 0.00 | 16 | 1007.0 |
| 20260501202504 | 94 | 151 | 2.0 | 6.0 | 0.00 | 0.00 | 0.00 | 19 | 1007.0 |
| 20260501202003 | 93 | 171 | 2.0 | 5.0 | 0.00 | 0.00 | 0.00 | 21 | 1007.0 |
| 20260501201503 | 94 | 153 | 3.0 | 9.0 | 0.00 | 0.00 | 0.00 | 19 | 1007.0 |
| 20260501201003 | 93 | 78 | 6.0 | 10.0 | 0.00 | 0.00 | 0.00 | 19 | 1007.1 |
| 20260501200503 | 93 | 115 | 2.0 | 5.0 | 0.00 | 0.00 | 0.00 | 21 | 1007.1 |
| 20260501200004 | 93 | 111 | 4.0 | 8.0 | 0.00 | 0.00 | 0.00 | 21 | 1007.3 |
| 20260501195503 | 93 | 104 | 7.0 | 12.0 | 0.00 | 0.00 | 0.00 | 20 | 1007.5 |
| 20260501195003 | 92 | 131 | 3.0 | 7.0 | 0.00 | 0.00 | 0.00 | 22 | 1007.5 |
| 20260501194503 | 92 | 91 | 2.0 | 8.0 | 0.00 | 0.00 | 0.00 | 22 | 1007.6 |
| 20260501193504 | 92 | 101 | 5.0 | 8.0 | 0.00 | 0.00 | 0.00 | 20 | 1007.6 |
| 20260501193004 | 92 | 45 | 4.0 | 7.0 | 0.00 | 0.00 | 0.00 | 22 | 1007.7 |
| 20260501192503 | 90 | 114 | 1.0 | 3.0 | 0.00 | 0.00 | 0.00 | 25 | 1007.8 |
| 20260501192003 | 90 | 139 | 3.0 | 7.0 | 0.00 | 0.00 | 0.00 | 25 | 1008.0 |
| 20260501191004 | 89 | 183 | 2.0 | 6.0 | 0.00 | 0.00 | 0.00 | 26 | 1008.1 |
| 20260501190503 | 89 | 180 | 3.0 | 9.0 | 0.00 | 0.00 | 0.00 | 24 | 1008.1 |
| 20260501190004 | 90 | 60 | 3.0 | 7.0 | 0.00 | 0.00 | 0.00 | 25 | 1008.1 |
| 20260501185504 | 88 | 103 | 2.0 | 7.0 | 0.00 | 0.00 | 0.00 | 26 | 1008.2 |
| 20260501185003 | 88 | 151 | 3.0 | 5.0 | 0.00 | 0.00 | 0.00 | 27 | 1008.3 |
| 20260501184504 | 87 | 40 | 1.0 | 7.0 | 0.00 | 0.00 | 0.00 | 28 | 1008.4 |
| 20260501184004 | 88 | 122 | 3.0 | 7.0 | 0.00 | 0.00 | 0.00 | 28 | 1008.5 |
| 20260501183503 | 88 | 4 | 2.0 | 8.0 | 0.00 | 0.00 | 0.00 | 30 | 1008.6 |
| 20260501183003 | 87 | 144 | 2.0 | 7.0 | 0.00 | 0.00 | 0.00 | 30 | 1008.6 |
| 20260501182503 | 86 | 183 | 4.0 | 7.0 | 0.00 | 0.00 | 0.00 | 31 | 1008.6 |
| 20260501181503 | 87 | 128 | 6.0 | 8.0 | 0.00 | 0.00 | 0.00 | 31 | 1008.7 |
| 20260501180503 | 87 | 79 | 4.0 | 9.0 | 0.00 | 0.00 | 0.00 | 30 | 1008.7 |
| 20260501180003 | 86 | 118 | 3.0 | 8.0 | 0.00 | 0.00 | 0.00 | 31 | 1008.8 |
| 20260501175503 | 85 | 128 | 4.0 | 8.0 | 0.00 | 0.00 | 0.00 | 31 | 1008.9 |
| 20260501175004 | 86 | 167 | 4.0 | 8.0 | 0.00 | 0.00 | 0.00 | 30 | 1008.9 |
| 20260501174503 | 85 | 104 | 2.0 | 6.0 | 0.00 | 0.00 | 0.00 | 33 | 1008.9 |
| 20260501174004 | 85 | 134 | 1.0 | 3.0 | 0.00 | 0.00 | 0.00 | 33 | 1009.0 |
| 20260501173004 | 86 | 148 | 3.0 | 8.0 | 0.00 | 0.00 | 0.00 | 31 | 1009.0 |
| 20260501172003 | 85 | 57 | 1.0 | 7.0 | 0.00 | 0.00 | 0.00 | 29 | 1009.0 |
| 20260501171004 | 86 | 35 | 3.0 | 7.0 | 0.00 | 0.00 | 0.00 | 32 | 1009.0 |
| 20260501170503 | 84 | 99 | 3.0 | 8.0 | 0.00 | 0.00 | 0.00 | 30 | 1009.1 |
| 20260501170004 | 85 | 99 | 4.0 | 8.0 | 0.00 | 0.00 | 0.00 | 30 | 1009.1 |
| 20260501165503 | 84 | 86 | 5.0 | 8.0 | 0.00 | 0.00 | 0.00 | 31 | 1009.1 |
| 20260501165004 | 83 | 117 | 3.0 | 5.0 | 0.00 | 0.00 | 0.00 | 31 | 1009.0 |
| 20260501164503 | 83 | 202 | 3.0 | 5.0 | 0.00 | 0.00 | 0.00 | 34 | 1009.1 |
| 20260501163503 | 82 | 258 | 4.0 | 12.0 | 0.00 | 0.00 | 0.00 | 35 | 1009.1 |